Voltar ao catálogo

EKRAN 2 DEB

AtivoGEO
NORAD 59986·DEBRIS·🇷🇺 Russia

Lançado Sep 20, 1977 de Baikonur Cosmodrome

Loading…

TLE

AtualizadoSource: Space-Track

Época: Sep 14, 2026, 02:06 UTC

1 59986U 77092M   26257.08770347 -.00000081  00000-0  00000-0 0  9990
2 59986   3.5539 269.4280 0037710 122.1284  50.7282  1.00942351 47429

Acompanhe EKRAN 2 DEB em tempo real com AllMySat

Download on the App Store